Weather reports worldwide

Advertisment
Charlwood, United Kingdom (3769): temperature & dewpoint: 11.08.2017 08:00:00 - 17.08.2017 08:00:00 (BST)Charlwood, United Kingdom (3769): temperature -20cm & temperature -100cm: 11.08.2017 08:00:00 - 17.08.2017 08:00:00 (BST)Charlwood, United Kingdom (3769): wind speed: 11.08.2017 08:00:00 - 17.08.2017 08:00:00 (BST)Charlwood, United Kingdom (3769): wind direction: 11.08.2017 08:00:00 - 17.08.2017 08:00:00 (BST)Charlwood, United Kingdom (3769): reduced air pressure: 11.08.2017 08:00:00 - 17.08.2017 08:00:00 (BST)Charlwood, United Kingdom (3769): visibility: 11.08.2017 08:00:00 - 17.08.2017 08:00:00 (BST)Charlwood, United Kingdom (3769): sunshine duration: 11.08.2017 08:00:00 - 17.08.2017 08:00:00 (BST)Charlwood, United Kingdom (3769): precipitation: 11.08.2017 08:00:00 - 17.08.2017 08:00:00 (BST)
Date & Time tt [°C] td [°C] tt -20cm [°C] tt -100cm [°C] ff [km/h] ff [kn] dd ppp [hPa] vv [km] sd [min] rr [mm]
17.08.2017 08:00:00 17,4 17,1 - - 16 9 SSW 1010,7 23 0 0,2
17.08.2017 07:00:00 17,1 16,8 - - 15 8 SW 1011,0 4,4 0 0,0
17.08.2017 06:00:00 16,5 16,2 - - 11 6 SSW 1010,9 4,9 0 0,2
17.08.2017 05:00:00 16,1 15,7 - - 9 5 SSW 1011,3 11 0 1,2
17.08.2017 04:00:00 15,7 15,2 - - 8 4 S 1012,1 5 0 0,6
17.08.2017 03:00:00 15,4 14,9 - - 5 3 S 1012,8 10 0 0,2
17.08.2017 02:00:00 15,3 14,7 - - 9 5 SSW 1013,6 19 0 1,0
17.08.2017 01:00:00 15,5 12,8 - - 8 4 S 1014,3 45 - 0,0
17.08.2017 00:00:00 14,9 12,6 - - 5 3 SSE 1015,0 45 0 0,0
16.08.2017 23:00:00 14,5 12,7 - - 8 4 SSE 1015,8 35 0 0,0
16.08.2017 22:00:00 14,0 12,2 - - 4 2 S 1016,8 35 0 0,0
16.08.2017 21:00:00 14,9 12,4 - - 5 3 S 1017,6 45 0 0,0
16.08.2017 20:00:00 16,1 11,5 - - 8 4 SSW 1017,6 50 0 0,0
16.08.2017 19:00:00 18,1 10,8 - - 11 6 SW 1018,0 50 54 0,0
16.08.2017 18:00:00 20,0 12,8 - - 13 7 SSW 1017,9 50 36 0,0
16.08.2017 17:00:00 19,9 13,1 - - 13 7 S 1018,3 40 30 0,0
16.08.2017 16:00:00 20,9 13,0 - - 15 8 SSW 1018,8 25 54 0,0
16.08.2017 15:00:00 20,9 12,7 - - 16 9 SW 1019,3 40 48 0,0
16.08.2017 14:00:00 21,3 12,1 - - 18 10 SSW 1019,4 35 42 0,0
16.08.2017 13:00:00 20,6 12,6 - - 13 7 SW 1019,3 50 6 0,0
16.08.2017 12:00:00 20,1 13,6 - - 15 8 SSW 1020,1 45 30 0,0
16.08.2017 11:00:00 18,7 15,6 - - 11 6 SW 1020,6 21 0 0,0
16.08.2017 10:00:00 16,8 15,3 19,0 16,7 4 2 SSW 1020,6 26 0 0,0
16.08.2017 09:00:00 12,8 12,4 - - 0 0 N 1020,6 45 0 0,0
16.08.2017 08:00:00 10,2 10,1 - - 0 0 N 1020,6 30 0 0,0
16.08.2017 07:00:00 8,1 7,9 - - 2 1 N 1020,5 40 0 0,0
16.08.2017 06:00:00 7,4 7,1 - - 2 1 W 1020,3 18 0 0,0
16.08.2017 05:00:00 7,8 7,5 - - 2 1 SW 1019,9 25 0 0,0
16.08.2017 04:00:00 8,1 7,7 - - 4 2 W 1020,0 30 0 0,0
16.08.2017 03:00:00 8,4 7,8 - - 2 1 SSW 1020,1 40 0 0,0
16.08.2017 02:00:00 9,1 8,2 - - 0 0 N 1020,0 40 0 0,0
16.08.2017 01:00:00 10,3 8,5 - - 8 4 WSW 1020,0 50 - 0,0
16.08.2017 00:00:00 10,8 8,7 - - 2 1 WSW 1019,8 50 0 0,0
15.08.2017 23:00:00 13,0 8,2 - - 5 3 W 1019,4 50 0 0,0
15.08.2017 22:00:00 14,8 9,0 - - 8 4 W 1019,0 50 0 0,0
15.08.2017 21:00:00 15,3 9,7 - - 5 3 W 1018,3 50 0 0,0
15.08.2017 20:00:00 18,6 11,2 - - 4 2 W 1017,3 50 36 0,0
15.08.2017 19:00:00 21,0 12,0 - - 4 2 NW 1016,3 40 18 0,0
15.08.2017 18:00:00 22,3 12,2 - - 8 4 W 1015,8 45 30 0,0
15.08.2017 17:00:00 22,0 11,7 - - 9 5 W 1015,8 35 42 0,0
15.08.2017 16:00:00 22,1 12,4 - - 9 5 W 1015,7 45 48 0,0
15.08.2017 15:00:00 21,2 12,3 - - 11 6 W 1015,5 45 42 0,0
15.08.2017 14:00:00 21,1 13,8 - - 9 5 W 1015,3 40 24 -
15.08.2017 13:00:00 20,6 14,2 - - 11 6 W 1015,0 30 36 0,0
15.08.2017 12:00:00 21,0 14,2 - - 8 4 NW 1014,6 35 24 0,0
15.08.2017 11:00:00 20,3 14,5 - - 5 3 N 1014,5 35 42 0,0
15.08.2017 10:00:00 18,2 13,1 19,2 16,7 5 3 NNW 1014,4 45 24 0,0
15.08.2017 09:00:00 17,3 14,6 - - 4 2 NW 1013,8 45 12 0,0
15.08.2017 08:00:00 13,8 13,2 - - 2 1 W 1013,6 20 0 0,0
15.08.2017 07:00:00 13,0 12,4 - - 2 1 SW 1013,2 12 0 0,0
15.08.2017 06:00:00 13,1 12,5 - - 2 1 WSW 1013,0 16 0 0,0
15.08.2017 05:00:00 13,4 12,6 - - 2 1 SW 1012,9 16 0 0,0
15.08.2017 04:00:00 12,9 12,6 - - 2 1 WNW 1012,9 11 0 0,0
15.08.2017 03:00:00 12,8 12,4 - - 2 1 ENE 1013,1 10 0 0,0
15.08.2017 02:00:00 13,2 12,9 - - 2 1 N 1014,0 10 0 0,0
15.08.2017 01:00:00 12,7 12,4 - - 0 0 N 1014,1 4,5 - 0,0
15.08.2017 00:00:00 12,4 11,9 - - 0 0 N 1014,3 6 0 0,0
14.08.2017 23:00:00 12,8 12,1 - - 4 2 W 1014,7 13 0 0,0
14.08.2017 22:00:00 13,8 12,4 - - 2 1 WSW 1014,9 23 0 0,0
14.08.2017 21:00:00 16,3 12,8 - - 4 2 WSW 1014,9 45 0 0,0
14.08.2017 20:00:00 18,1 12,0 - - 5 3 SW 1014,7 45 12 0,0
14.08.2017 19:00:00 19,3 13,2 - - 4 2 SSW 1014,5 45 0 0,0
14.08.2017 18:00:00 19,9 12,1 - - 5 3 SSW 1015,2 45 6 0,0
14.08.2017 17:00:00 21,1 12,0 - - 11 6 SW 1015,7 35 18 0,0
14.08.2017 16:00:00 22,6 11,8 - - 13 7 SSW 1015,9 40 60 0,0
14.08.2017 15:00:00 23,2 13,0 - - 13 7 SW 1016,1 50 60 0,0
14.08.2017 14:00:00 23,6 12,8 - - 15 8 SSE 1016,3 35 60 0,0
14.08.2017 13:00:00 23,3 13,1 - - 9 5 S 1016,8 30 60 0,0
14.08.2017 12:00:00 22,8 14,9 - - 9 5 S 1017,3 50 60 0,0
14.08.2017 11:00:00 20,5 13,3 - - 11 6 SSW 1018,2 17 60 0,0
14.08.2017 10:00:00 18,2 13,1 18,9 16,7 4 2 E 1018,7 30 54 0,0
14.08.2017 09:00:00 14,2 12,2 - - 2 1 NE 1019,1 21 42 0,0
14.08.2017 08:00:00 11,9 11,7 - - 2 1 NNE 1019,2 16 54 0,0
14.08.2017 07:00:00 8,4 8,3 - - 2 1 N 1019,2 12 6 0,0
14.08.2017 06:00:00 6,7 6,5 - - 2 1 N 1019,2 4,7 0 0,0
14.08.2017 05:00:00 7,0 6,7 - - 2 1 NNW 1019,3 6 0 0,0
14.08.2017 04:00:00 7,1 6,8 - - 0 0 N 1019,8 6 0 0,0
14.08.2017 03:00:00 7,6 7,3 - - 2 1 WNW 1020,2 8 0 0,0
14.08.2017 02:00:00 8,2 7,8 - - 2 1 W 1020,7 11 0 0,0
14.08.2017 01:00:00 8,6 8,2 - - 2 1 W 1021,0 17 - 0,0
14.08.2017 00:00:00 9,1 8,5 - - 0 0 N 1021,0 28 0 0,0
13.08.2017 23:00:00 9,8 8,5 - - 4 2 W 1021,2 30 0 0,0
13.08.2017 22:00:00 11,9 9,3 - - 8 4 WSW 1021,2 45 0 0,0
13.08.2017 21:00:00 13,3 9,9 - - 5 3 WSW 1021,3 50 0 0,0
13.08.2017 20:00:00 16,5 9,9 - - 4 2 SW 1020,9 50 30 0,0
13.08.2017 19:00:00 19,5 10,0 - - 8 4 SW 1020,6 35 60 0,0
13.08.2017 18:00:00 18,4 11,9 - - 5 3 SW 1020,6 35 6 0,0
13.08.2017 17:00:00 21,9 10,0 - - 4 2 SSW 1020,7 50 36 0,0
13.08.2017 16:00:00 20,7 7,0 - - 8 4 W 1021,1 45 30 0,0
13.08.2017 15:00:00 20,4 7,1 - - 5 3 WNW 1021,3 40 54 0,0
13.08.2017 14:00:00 21,3 8,5 - - 4 2 SSW 1021,3 30 60 0,0
13.08.2017 13:00:00 20,0 7,1 - - 5 3 E 1021,6 30 60 0,0
13.08.2017 12:00:00 19,1 7,6 - - 5 3 NW 1021,9 35 60 0,0
13.08.2017 11:00:00 18,7 7,0 - - 8 4 N 1022,0 45 54 0,0
13.08.2017 10:00:00 17,2 8,5 18,7 16,7 8 4 NNE 1021,9 45 60 0,0
13.08.2017 09:00:00 15,5 9,4 - - 8 4 N 1021,5 40 60 0,0
13.08.2017 08:00:00 14,0 9,7 - - 5 3 NNW 1021,2 23 54 0,0
13.08.2017 07:00:00 11,3 9,3 - - 2 1 NW 1021,0 30 0 0,0
13.08.2017 06:00:00 11,9 9,0 - - 2 1 N 1020,4 40 0 0,0
13.08.2017 05:00:00 12,8 9,2 - - 2 1 NW 1020,2 50 0 0,0
13.08.2017 04:00:00 13,1 9,9 - - 4 2 WNW 1020,0 50 0 0,0
13.08.2017 03:00:00 13,3 10,8 - - 2 1 NNW 1019,7 40 0 0,0
13.08.2017 02:00:00 10,8 10,0 - - 4 2 W 1019,7 30 0 0,0
13.08.2017 01:00:00 12,5 10,9 - - 4 2 SW 1019,4 35 - 0,0
13.08.2017 00:00:00 14,5 11,6 - - 4 2 W 1019,2 35 0 0,0
12.08.2017 23:00:00 15,4 12,4 - - 9 5 W 1018,8 35 0 0,0
12.08.2017 22:00:00 15,5 11,5 - - 9 5 WSW 1018,4 50 0 0,0
12.08.2017 21:00:00 15,3 10,7 - - 5 3 W 1018,0 50 0 0,0
12.08.2017 20:00:00 18,0 11,5 - - 5 3 WSW 1017,4 50 24 0,0
12.08.2017 19:00:00 20,1 10,7 - - 9 5 W 1016,9 30 54 0,0
12.08.2017 18:00:00 19,8 10,8 - - 9 5 W 1016,7 45 48 0,0
12.08.2017 17:00:00 20,0 11,3 - - 11 6 W 1016,6 45 30 0,0
12.08.2017 16:00:00 19,5 11,3 - - 13 7 W 1016,4 45 18 0,0
12.08.2017 15:00:00 19,6 11,0 - - 15 8 W 1016,0 40 42 0,0
12.08.2017 14:00:00 19,7 11,9 - - 16 9 W 1015,9 26 30 0,0
12.08.2017 13:00:00 20,7 13,2 - - 13 7 W 1015,5 50 42 0,0
12.08.2017 12:00:00 20,3 12,9 - - 16 9 WSW 1015,3 40 42 0,0
12.08.2017 11:00:00 19,7 13,3 - - 9 5 W 1015,0 45 30 0,0
12.08.2017 10:00:00 18,8 14,4 18,7 16,7 15 8 WSW 1015,1 40 24 0,0
12.08.2017 09:00:00 17,4 14,2 - - 13 7 WSW 1015,1 50 6 0,0
12.08.2017 08:00:00 17,1 15,7 - - 8 4 WSW 1014,9 50 6 0,0
12.08.2017 07:00:00 16,2 15,5 - - 8 4 WSW 1014,6 40 0 0,0
12.08.2017 06:00:00 15,9 15,4 - - 8 4 WSW 1014,4 30 0 0,2
12.08.2017 05:00:00 16,0 15,4 - - 9 5 WSW 1014,3 10 0 0,0
12.08.2017 04:00:00 16,2 15,2 - - 11 6 WSW 1014,4 30 0 0,0
12.08.2017 03:00:00 16,3 15,1 - - 11 6 WSW 1014,9 20 0 0,0
12.08.2017 02:00:00 16,2 15,0 - - 9 5 SW 1015,2 20 0 0,0
12.08.2017 01:00:00 16,1 14,8 - - 13 7 SW 1015,5 18 - 0,0
12.08.2017 00:00:00 15,9 14,7 - - 11 6 SW 1016,1 17 0 0,0
11.08.2017 23:00:00 15,6 14,3 - - 11 6 SW 1016,8 11 0 0,0
11.08.2017 22:00:00 15,8 13,8 - - 11 6 SW 1017,1 12 0 0,0
11.08.2017 21:00:00 15,9 13,5 - - 9 5 SW 1017,4 30 0 0,0
11.08.2017 20:00:00 16,2 13,2 - - 13 7 WSW 1017,2 35 0 0,0
11.08.2017 19:00:00 16,9 12,7 - - 13 7 WSW 1017,4 40 0 0,0
11.08.2017 18:00:00 17,2 13,0 - - 18 10 WSW 1017,5 25 0 0,0
11.08.2017 17:00:00 19,1 12,1 - - 15 8 WSW 1017,6 40 18 0,0
11.08.2017 16:00:00 19,7 10,6 - - 15 8 WSW 1018,0 40 24 0,0
11.08.2017 15:00:00 20,1 11,5 - - 15 8 SW 1018,3 50 42 0,0
11.08.2017 14:00:00 20,5 11,4 - - 15 8 WSW 1018,7 30 60 0,0
11.08.2017 13:00:00 20,5 11,5 - - 9 5 SW 1019,0 50 60 0,0
11.08.2017 12:00:00 19,8 13,2 - - 13 7 WSW 1019,5 50 60 0,0
11.08.2017 11:00:00 17,6 10,3 - - 13 7 WSW 1019,6 45 54 0,0
11.08.2017 10:00:00 16,4 11,6 18,0 16,7 13 7 WSW 1019,9 35 60 0,0
11.08.2017 09:00:00 13,7 13,6 - - 4 2 SSW 1020,1 16 42 0,0
11.08.2017 08:00:00 9,3 9,2 - - 0 0 N 1020,6 7 6 0,0

tt = temperature
td = dewpoint
tt -20cm = temperature -20cm
tt -100cm = temperature -100cm
ff = wind speed
dd = wind direction
ppp = reduced air pressure
vv = visibility
sd = sunshine duration
rr = precipitation

Next stations